Location: Faucon
(44.4000°N, 6.6833°E)
Time: 23:58:14
(UTC+00:00)

Daily predictions for brighter satellites

Satellite Brightness Start Highest point End
(mag) Time Altitude Azimuth Time Altitude Azimuth Time Altitude Azimuth
Cosmos 2026 Rocket 4.3 16:21:32 10° N 16:27:20 41° ENE 16:33:01 10° SE
CZ-4B R/B 2.8 16:24:41 10° SSE 16:28:42 71° ENE 16:32:33 10° N
USA 305 4.4 16:25:30 10° NW 16:28:52 22° N 16:32:13 10° NE
Cosmos 2322 Rocket 4.0 16:27:47 10° NNE 16:29:16 11° NE 16:30:44 10° NE
Cosmos 1743 Rocket 3.5 16:25:13 10° N 16:29:32 65° E 16:33:50 10° SSE
Cosmos 1933 3.7 16:25:46 10° SSE 16:29:38 45° E 16:33:31 10° NNE
Cosmos 1697 Rocket 2.7 16:25:34 10° NNW 16:31:11 67° ENE 16:36:46 10° SE
Cosmos 1980 Rocket 2.6 16:30:33 10° NNW 16:35:53 40° ENE 16:41:08 10° SE
Okean O Rocket 3.2 16:33:18 10° E 16:35:56 16° ENE 16:38:34 10° NNE
SL-08 R/B 3.6 16:31:31 10° N 16:36:12 70° WNW 16:40:47 10° SSW
Cosmos 540 Rocket 3.6 16:32:04 10° S 16:37:03 57° ESE 16:42:04 10° NNE
FengYun 1-2 T 4.2 16:31:40 10° SSE 16:37:13 71° ENE 16:42:44 10° N
Cosmos 2369 3.9 16:34:41 10° NNW 16:40:18 53° ENE 16:45:53 10° SE
SJ 16-02 4.3 16:37:24 10° NW 16:40:27 19° W 16:43:31 10° SW
Cosmos 1809 Rocket 4.4 16:38:50 10° N 16:44:53 62° ENE 16:50:53 10° SSE
Meteor PRIRODA 4.0 16:41:24 10° S 16:45:01 67° W 16:48:38 10° NNW
Cosmos 1812 3.8 16:41:52 10° SE 16:45:02 25° E 16:48:13 10° NE
NOAA 12 4.3 16:40:24 10° SSE 16:45:44 83° WSW 16:51:05 10° NNW
SL-16 R/B 3.6 16:44:34 10° N 16:48:18 18° NE 16:51:24 12° E
CORIOLIS 4.2 16:43:55 10° SSE 16:49:14 65° ENE 16:54:38 10° N
Cosmos 2082 Rocket 2.4 16:45:26 10° S 16:50:54 51° ESE 16:56:23 10° NE
Meteor 1-25 Rocket 4.3 16:50:47 10° NNW 16:56:23 84° W 17:02:00 10° S
Cosmos 1500 Rocket 4.3 16:53:15 10° NNW 16:57:37 58° W 17:01:55 10° S
USA 306 4.4 16:57:57 10° NW 17:01:21 23° N 17:03:34 15° NE
CZ-4B DEB 4.2 16:56:37 10° SSE 17:02:05 71° ENE 17:07:34 10° N
MOS 1-B Rocket 4.4 16:56:45 10° NNE 17:02:34 49° E 17:09:11 10° S
Cosmos 1898 Rocket 4.1 16:58:00 10° NNW 17:03:12 63° WSW 17:08:19 10° S
Cosmos 1939 Rocket 3.2 16:59:44 10° S 17:03:50 72° WSW 17:07:56 10° NNW
Cosmos 2278 3.9 16:58:27 10° NNW 17:03:57 47° ENE 17:09:26 10° SE
Cosmos 1602 3.8 17:00:52 10° N 17:04:44 78° W 17:08:36 10° S
Cosmos 1818 4.3 16:59:49 10° NNW 17:04:45 32° NE 17:08:58 13° ESE
Sich 1 2.9 17:00:36 10° N 17:04:54 77° E 17:09:14 10° SSE
CZ-2C R/B 3.7 17:03:34 10° S 17:05:04 12° SSE 17:06:31 10° SE
ARGOS 3.7 17:00:45 10° SE 17:05:35 34° ENE 17:10:25 10° N
Cosmos 1805 Rocket 3.7 17:05:15 10° NNW 17:09:35 74° W 17:13:53 10° S
Cosmos 1833 Rocket 3.4 17:05:20 10° SW 17:10:49 55° WNW 17:16:22 10° NNE
COSMOS 2406 3.6 17:08:59 10° SW 17:14:42 66° WNW 17:20:25 10° NNE
deb Chang Zheng 4 3.9 17:12:50 10° SE 17:16:53 42° ENE 17:20:58 10° N
NOSS 2-2 (C) 4.4 17:12:06 10° NW 17:17:25 85° NE 17:24:58 10° SE
USA 307 4.3 17:17:12 10° NW 17:20:41 23° N 17:21:59 20° NE
USA 267 3.6 17:16:33 15° NE 17:22:02 61° NNW 17:28:26 10° WSW
Cosmos 1782 3.2 17:18:15 10° SSW 17:22:12 66° W 17:26:11 10° N
Cosmos 2208 Rocket 4.3 17:20:29 10° S 17:25:39 51° ESE 17:29:27 18° NE
Cosmos 1515 Rocket 4.5 17:23:09 10° SSE 17:26:52 27° E 17:26:52 27° E
CZ-2C R/B 2.6 17:22:30 10° NNE 17:27:36 55° E 17:32:39 10° S
SL-08 RB Rocket 4.3 17:23:46 10° SE 17:27:56 34° ENE 17:32:05 10° N
CZ-2D R/B 3.3 17:24:27 10° S 17:28:17 81° WSW 17:32:07 10° NNW
Cosmos 1500 3.7 17:25:44 10° NNW 17:29:25 60° W 17:33:04 10° S
Meteor 2-6 Rocket 4.3 17:25:22 10° S 17:30:59 56° E 17:36:27 10° NNE
H-2A R/B 2.0 17:26:17 10° SSE 17:31:28 90° ENE 17:36:32 10° NNW
CZ-4C R/B 2.9 17:24:25 10° NW 17:31:42 74° NE 17:40:11 10° SE
Meteor 2-16 Rocket 4.3 17:26:41 10° N 17:32:49 77° E 17:38:57 10° SSE
CZ-4B R/B 3.0 17:27:30 10° SSE 17:32:53 71° ENE 17:38:12 10° N
PAYLOAD B 4.4 17:29:07 10° SSE 17:34:43 80° WSW 17:40:21 10° NNW
Cosmos 841 Rocket 4.0 17:29:56 10° SW 17:35:00 58° WNW 17:40:07 10° NNE
USA 308 4.1 17:39:49 10° NW 17:43:25 26° NNE 17:43:39 26° NNE
Lacrosse 5 rocket 1.7 17:41:05 10° NW 17:44:49 41° NNE 17:44:49 41° NNE
COSMO-SKYMED 1 2.4 17:41:39 18° NNE 17:44:53 80° ESE 17:49:13 10° S
Cosmos 921 Rocket 3.1 17:40:55 10° S 17:44:57 49° ESE 17:45:22 47° E
Cosmos 1125 Rocket 3.8 17:41:19 10° N 17:46:18 42° ENE 17:47:31 37° E
COSMOS 2455 3.4 17:41:46 10° SW 17:47:39 54° NW 17:52:29 16° NNE
Cosmos 2279 Rocket 4.0 17:43:05 10° S 17:49:18 81° W 17:55:33 10° N
ATLAS 2AS CENTAUR R/B 4.4 17:47:06 10° NNW 17:51:48 17° N 17:54:01 15° NNE
Cosmos 1633 Rocket 3.2 17:47:36 10° NNW 17:51:59 75° W 17:56:21 10° S
ISS -3.3 17:49:12 10° WNW 17:52:33 59° SW 17:53:03 52° S
Helios 1B 4.5 17:49:55 21° NNE 17:52:49 87° WNW 17:57:08 10° SSW
Cosmos 2360 Rocket 3.6 17:49:19 10° N 17:52:12 21° NNE 17:52:12 21° NNE
Cosmos 44 Rocket 3.2 17:49:54 10° NNW 17:54:49 65° NE 17:56:04 46° ESE
Cosmos 2266 Rocket 4.0 17:48:33 10° N 17:54:54 61° E 18:01:14 10° SSE
USA 234 3.6 17:48:41 10° SE 17:55:10 65° SW 18:01:41 10° NW
Meteor 1-10 Rocket 4.1 17:50:55 10° S 17:56:38 67° E 18:00:37 20° NNE
Meteor 1-11 Rocket 3.7 17:53:08 10° N 17:58:40 55° ENE 18:04:17 10° SSE
Cosmos 1666 3.5 17:55:05 10° NNW 17:58:41 49° W 18:02:15 10° S
Cosmos 1151 Rocket 3.9 17:56:08 10° SSW 18:00:19 50° WNW 18:04:35 10° N
USA 305 4.2 18:05:49 10° NW 18:08:40 29° N 18:08:40 29° N
Cosmos 1900 4.4 18:05:37 10° SW 18:10:28 70° NW 18:11:48 46° NNE
Okean O Rocket 2.1 18:07:23 10° S 18:11:47 61° W 18:16:13 10° NNW
X-37B 3.4 18:09:42 10° SSW 18:10:00 12° SSW 18:10:00 12° SSW
Feng Yun 1-1 Rocket 4.2 18:07:00 10° SSE 18:12:54 81° ENE 18:18:48 10° NNW
Meteor 2-15 4.4 18:07:53 10° S 18:14:01 83° W 18:20:09 10° N
Cosmos 2322 Rocket 2.6 18:09:14 10° NNW 18:13:54 46° NNE 18:13:54 46° NNE
Landsat 5 3.7 18:16:56 59° NW 18:17:23 64° WNW 18:21:18 10° SSW
Cosmos 1980 Rocket 3.9 18:14:45 10° NW 18:19:45 33° WSW 18:24:43 10° SSW
Spot 2 4.3 18:16:54 10° SSE 18:22:02 83° ENE 18:27:11 10° NNW
Cosmos 1470 Rocket 4.0 18:17:41 10° NNW 18:22:05 61° W 18:26:30 10° S
SL-16 R/B 2.0 18:27:32 10° NNW 18:33:15 88° ENE 18:33:21 87° SE
Cosmos 2082 Rocket 3.9 18:30:25 10° WSW 18:35:15 28° NW 18:38:46 16° N
Cosmos 1655 Rocket 4.4 18:30:01 10° NNW 18:36:20 64° W 18:42:35 10° S
Cosmos 2298 Rocket 4.3 18:31:17 10° NNW 18:36:34 64° WSW 18:38:49 34° S
ATLAS CENTAUR R/B 4.0 18:31:55 10° W 18:37:10 23° NW 18:37:45 22° NNW
DMSP B5D2-2 4.4 18:42:38 60° SSW 18:42:38 60° SSW 18:46:53 10° SSW
CZ-2C R/B 3.8 18:40:43 10° SW 18:42:01 16° SSW 18:42:01 16° SSW
Cosmos 2333 Rocket 4.3 18:41:38 10° N 18:42:44 15° N 18:42:44 15° N
Cosmos 1818 4.4 18:43:15 10° NW 18:48:31 49° WSW 18:49:43 41° SSW
GEOS 3 Rocket 4.4 18:54:52 46° NW 18:54:52 46° NW 18:58:30 10° NW
Meteor 1-27 Rocket 4.4 18:57:08 10° SSW 19:01:42 51° WSW 19:01:42 51° WSW
USA 267 4.3 19:03:55 32° N 19:04:19 32° NNW 19:09:58 10° WNW
Cosmos 2360 Rocket 4.4 19:32:43 10° NNW 19:33:59 17° NW 19:33:59 17° NW
